Tracking 23731 objects as of 26-Sep-2021
HD Live streaming from Space Station
objects crossing your sky now

STARLINK-1421

Track STARLINK-1421 now!
10-day predictions
STARLINK-1421 is classified as:


NORAD ID: 45709
Int'l Code: 2020-035BE
Perigee: 552.7 km
Apogee: 555.9 km
Inclination: 53.1 °
Period: 95.6 minutes
Semi major axis: 6925 km
RCS: Unknown
Launch date: June 4, 2020
Source: United States (US)
Launch site: AIR FORCE EASTERN TEST RANGE (AFETR)
aabbcc
Your satellite tracking list
Your tracking list is empty




NASA's NSSDC Master Catalog

Two Line Element Set (TLE):
1 45709U 20035BE  21268.93941648  .00000058  00000-0  22786-4 0  9990
2 45709  53.0532 134.8985 0002316  71.6930 288.4310 15.06402830 73703
Source of the keplerian elements: AFSPC